weather.gov     
National Weather Service

Terminal Aerodrome Forecast
NWS Homepage
This page is being discontinued on March 12, 2014.
The same data is available at this site. Please update your bookmarks.
Thank you, and we apologize for the inconvenience.
Please send an email to SR-SRH.Webmaster@noaa.gov with any concerns.


Current Version
Previous Version:    01  02  03  04  05  06  07  08  09  10  11  12  13  14  15  16  17  18  19  20  21  22  23  24  25  26  27  28  29  30  
   31  32  33  34  35  
[Printable]
381
FTUS43 KFSD 221700
TAFFSD
TAF
KFSD 221720Z 2218/2318 08007KT P6SM SCT035 SCT200
      TEMPO 2218/2220 BKN025
     FM230900 07009KT 5SM -TSRA OVC035CB
      TEMPO 2309/2313 2SM TSRA BR BKN015CB
     FM231400 07009KT P6SM VCTS BKN025CB=


U.S. Dept. of Commerce
NOAA National Weather Service
1325 East West Highway
Silver Spring, MD 20910
E-mail: w-nws.webmaster@noaa.gov
Page last modified: May 16, 2007
NATIONAL WEATHER SERVICE: for Safety, for Work, for Fun - FOR LIFE